Torna al catalogo

COSMOS 723

AttivoMilitareLEO
NORAD 7718·PAYLOAD·🇷🇺 Russia

Lanciato Apr 2, 1975 da Baikonur Cosmodrome

Loading…

Prossimi Passaggi (prossime 24 ore)

TLE

AggiornatoSource: Space-Track

Epoca: Sep 14, 2026, 11:00 UTC

1 07718U 75024A   26257.45853491 -.00000093  00000-0 -10120-5 0  9995
2 07718  64.7165  59.7555 0057053 315.7638  43.8868 13.89667732611189

Traccia COSMOS 723 in tempo reale con AllMySat

Download on the App Store